This is the latest recevied weather packets stored in our database for station/object KC2GYU. If no packets are shown the sender has not sent any weather packets the latest 10 day(s).
| Time | Temp. | Humidity | Pressure | Rain* | Wind** | Luminosity | Snow |
|---|---|---|---|---|---|---|---|
| 1777592973 | 12.78° C | 93% | 1008.7 hPa | 0 mm | - | 1 W/m² | - |
| 1777592668 | 12.78° C | 92% | 1008.8 hPa | 0 mm | - | 3 W/m² | - |
| 1777592364 | 13.33° C | 92% | 1008.8 hPa | 0 mm | - | 5 W/m² | - |
| 1777592059 | 13.33° C | 92% | 1008.8 hPa | 0 mm | - | 7 W/m² | - |
| 1777591757 | 13.33° C | 92% | 1008.8 hPa | 0 mm | - | 9 W/m² | - |
| 1777591452 | 13.33° C | 91% | 1008.8 hPa | 0 mm | - | 17 W/m² | - |
| 1777591149 | 13.89° C | 91% | 1008.8 hPa | 0 mm | - | 20 W/m² | - |
| 1777590843 | 13.89° C | 91% | 1008.6 hPa | 0 mm | - | 21 W/m² | - |
| 1777590540 | 13.89° C | 91% | 1008.7 hPa | 0 mm | - | 23 W/m² | - |
| 1777590235 | 13.89° C | 90% | 1008.7 hPa | 0 mm | - | 30 W/m² | - |
| 1777589934 | 13.89° C | 90% | 1008.6 hPa | 0 mm | - | 41 W/m² | - |
| 1777589629 | 13.89° C | 90% | 1008.6 hPa | 0 mm | - | 43 W/m² | - |
| 1777589326 | 14.44° C | 89% | 1008.5 hPa | 0 mm | - | 47 W/m² | - |
| 1777589024 | 14.44° C | 89% | 1008.4 hPa | 0 mm | - | 51 W/m² | - |
| 1777588720 | 14.44° C | 88% | 1008.6 hPa | 0 mm | - | 52 W/m² | - |
| 1777588416 | 14.44° C | 88% | 1008.5 hPa | 0 mm | - | 52 W/m² | - |
| 1777588112 | 15° C | 87% | 1008.7 hPa | 0 mm | - | 65 W/m² | - |
| 1777587808 | 15° C | 87% | 1008.8 hPa | 0 mm | - | 69 W/m² | - |
| 1777587507 | 15° C | 85% | 1008.8 hPa | 0 mm | - | 62 W/m² | - |
| 1777587204 | 15.56° C | 85% | 1008.5 hPa | 0 mm | - | 90 W/m² | - |
| 1777586899 | 15.56° C | 85% | 1008.6 hPa | 0 mm | - | 81 W/m² | - |
| 1777586595 | 15.56° C | 85% | 1008.9 hPa | 0 mm | - | 72 W/m² | - |
| 1777586291 | 15.56° C | 84% | 1008.6 hPa | 0 mm | - | 92 W/m² | - |
| 1777585989 | 15.56° C | 84% | 1008.5 hPa | 0 mm | - | 183 W/m² | - |
| 1777585683 | 15° C | 85% | 1008.5 hPa | 0 mm | - | 99 W/m² | - |
* Rain latest hour (hover to see other rain measurements)
** Current wind speed in m/s (hover to see current wind gust speed)